Regional Weather Roundup
Issued by NWS

Home | Current Version | Previous Version | Text Only | Print | Product List | Glossary Off
Versions: 1 2 3 4 5 6 7 8 9 10 11 12 13 14 15 16 17 18 19 20 21 22 23 24 25 26 27 28 29 30 31 32 33 34 35 36 37 38 39 40 41 42 43 44 45 46 47 48 49 50

000
ASUS43 KDMX 281307
RWRIA

WEATHER ROUNDUP FOR IOWA
NATIONAL WEATHER SERVICE DES MOINES IA
800 AM CDT SAT MAR 28 2015

NOTE: "FAIR" INDICATES FEW OR NO CLOUDS BELOW 12,000 FEET WITH NO
SIGNIFICANT WEATHER AND/OR OBSTRUCTIONS TO VISIBILITY.

* - THESE STATIONS ARE NOT NWS STATIONS...THUS NOT UNDER NWS
QUALITY CONTROL.  THEY ALSO DO NOT REPORT WEATHER SUCH
AS PRECIPITATION OR FOG.

IAZ001>003-012>014-020>022-031>034-043>046-281400-
   NORTHWEST IOWA

CITY           SKY/WX    TMP DP  RH WIND       PRES   REMARKS
CARROLL *      CLOUDY    32  28  86 E7        30.17R WCI  26
CHEROKEE *     CLOUDY    30  28  93 SE3       30.16R
DENISON *      CLOUDY    30  30 100 E5        30.14R WCI  25
LE MARS *      PTCLDY    30  27  86 SE6       30.15R WCI  24
ORANGE CITY *  CLEAR     28  27  93 SE3       30.14R
SHELDON *      CLOUDY    28  28 100 SE9       30.14R WCI  20
SIOUX CITY       N/A     30  25  81 SE8       30.14R WCI  22
SPENCER        CLOUDY    30  26  85 E6        30.17R WCI  24
STORM LAKE *   CLOUDY    28  27  93 SE9       30.16R WCI  20
$$

IAZ055>058-069>071-079>083-090>094-281400-
   SOUTHWEST IOWA

CITY           SKY/WX    TMP DP  RH WIND       PRES   REMARKS
ATLANTIC *     CLOUDY    32  25  74 E6        30.16R WCI  26
AUDUBON *      CLEAR     32  27  80 SE6       30.17R WCI  26
CLARINDA *     CLOUDY    34  28  80 SE5       30.18R WCI  30
COUNCIL BLFS * PTCLDY    32  28  86 SE8       30.14R WCI  25
CRESTON *      CLOUDY    32  21  64 SE12      30.17R WCI  23
HARLAN  *      CLEAR     30  28  93 CALM      30.19R
LAMONI         CLOUDY    33  24  69 SE6       30.18R WCI  28
RED OAK *      CLOUDY    34  28  80 SE7       30.16R WCI  28
SHENANDOAH *   CLOUDY    34  28  80 SE10      30.16R WCI  26
$$

IAZ047>049-059>061-072>074-084-281400-
   CENTRAL IOWA

CITY           SKY/WX    TMP DP  RH WIND       PRES   REMARKS
AMES           CLOUDY    28  16  60 SE8       30.21R WCI  20
ANKENY *       CLOUDY    30  16  55 SE7       30.22R WCI  23
CHARITON *     CLOUDY    32  16  51 SE7       30.21R WCI  26
DES MOINES     CLOUDY    32  14  47 SE7       30.21R WCI  26
GRINNELL*      PTSUNNY   23  16  74 E6        30.24R WCI  16
KNOXVILLE *    CLOUDY    28  16  59 E6        30.21R WCI  22
MARSHALLTOWN   CLOUDY    24  17  74 SE7       30.23R WCI  16
PELLA *        SUNNY     27  21  80 E5        30.25R WCI  21
PERRY *        CLOUDY    32  23  69 E6        30.19R WCI  26
$$

IAZ004>006-015-016-023>025-035-036-281400-
   NORTH CENTRAL IOWA

CITY           SKY/WX    TMP DP  RH WIND       PRES   REMARKS
ALGONA *       CLOUDY    28  21  74 SE9       30.20R WCI  20
CLARION *      CLOUDY    28  19  69 SE10      30.21R WCI  19
ESTHERVILLE    CLOUDY    28  23  81 SE10      30.18R WCI  19
FORT DODGE *   CLOUDY    28  18  64 E7        30.21R WCI  21
MASON CITY     CLEAR     25  16  68 SE9       30.23R WCI  15
FOREST CITY *  CLEAR     27  19  74 SE5       30.21R WCI  21
IOWA FALLS *   CLOUDY    25  19  80 E6        30.23R WCI  18
$$

IAZ007>011-017>019-026>030-037>042-050>054-066-281400-
   NORTHEAST IOWA

CITY           SKY/WX    TMP DP  RH WIND       PRES   REMARKS
CEDAR RAPIDS   SUNNY     22  16  78 SE7       30.26R WCI  13
CHARLES CITY * MOSUNNY   25  18  74 E6        30.25R WCI  18
CLINTON *      SUNNY     23  18  80 SE3       30.33R
DECORAH *      SUNNY     18   9  68 CALM      30.25R
DUBUQUE        SUNNY     20  16  84 S6        30.27R WCI  12
MONTICELLO *   SUNNY     23  18  80 SE7       30.29R WCI  15
OELWEIN *      SUNNY     25  18  74 SE7       30.26R WCI  17
WATERLOO       MOSUNNY   24  17  74 SE6       30.25R WCI  17
$$

IAZ064-065-067-068-078-281400-
   EAST CENTRAL IOWA

CITY           SKY/WX    TMP DP  RH WIND       PRES   REMARKS
DAVENPORT      SUNNY     22  15  75 SE7       30.30R WCI  13
IOWA CITY      MOSUNNY   24  15  68 SE3       30.30R
MT. PLEASANT * SUNNY     27  18  69 SE6       30.28R WCI  20
MUSCATINE *    SUNNY     25  16  68 SE6       30.31R WCI  18
QUAD CITIES    SUNNY     21  15  78 CALM      30.31R
$$

IAZ062-063-075>077-085>089-095>099-281400-
   SOUTHEAST IOWA

CITY           SKY/WX    TMP DP  RH WIND       PRES   REMARKS
BURLINGTON     MOSUNNY   25  18  74 SE5       30.28R WCI  19
FAIRFIELD *    SUNNY     25  18  74 SE6       30.26R WCI  18
FORT MADISON * PTSUNNY   27  18  69 SE8       30.28R WCI  18
KEOKUK *       CLOUDY    28  18  64 SE7       30.27R WCI  21
OSKALOOSA *      N/A     25  18  74 SE9       30.25R WCI  15
CENTERVILLE *  PTSUNNY   30  18  59 SE8       30.23R WCI  23
OTTUMWA        CLOUDY    26  18  71 SE7       30.24R WCI  18
WASHINGTON *   SUNNY     23  21  93 SE6       30.27R WCI  16
$$

ABBREVIATIONS USED IN REMARKS
   TC - TEMPERATURES IN CELSIUS
  WCI - WIND CHILL INDEX
   HX - HEAT INDEX
  VSB - VISIBILITY
$$



USA.gov is the U.S. government's official web portal to all federal, state and local government web resources and services.